map of KSPB home
KSPB - Airport
Location
City:  Scappoose, Oregon, United States
Name:Scappoose Industrial Airpark
ICAO:KSPB
FAA LID:SPB

Details
Type:Airport (Airfield)
Use:Public/Civil
Latitude:4546'16"N (45.771028)
Longitude:12251'43"W (-122.861832)
Datum:WGS 1984
Elevation:58 ft (18 m)
Variation:15.47E (WMM2015 magnetic declination)
-0.13 annual change
Runways:1
Longest:5100 × 100 ft (1554 × 30.5 m), paved

Time
Time Zone:UTC-8 (DST-7)
Local Time:

Weather
METAR:KSPB 262253Z AUTO 26010KT 10SM SCT065 BKN080 BKN095 13/06 A2994 RMK AO2 RAB2154E10B37E47 SLP138 P0000 T01280061

Related Locations
Nearby:
Farthest:FTU: 10894 mi / 17532 km
Tolagnaro [Maurillac Airport (Fort Dauphin Airport)], MG

Find:

   beyond  
but within

Other Information
Maps:
NOTAMs:
Links:
Sources:

  
flag of United States
flag of Oregon
  

Sectional Chart

Flight Planning
at skyvector.com

Satellite Image

Google Maps Satellite view

 

Copyright © 2004-2017 Karl L. Swartz. All rights reserved.
The Great Circle Mapper name and logo are trademarks of the Great Circle Mapper.
All other trademarks mentioned herein belong to their respective owners.
Please see credits for attibutions and further copyright information.

  Follow gcmap on Facebook Follow gcmap on Twitter Follow gcmap on Google+ GCmap on LinkedIn

hCard Microformat

Geo Microformat